Location: Ariel
(45.9570°N, 122.5700°W)
Time: 13:42:36
(UTC-07:00)

Altair - Pass Details

Date: 26 July 2019
Orbit: 1501 x 1683 km, 47.2° (Epoch: 24 August)

Event Time Altitude Azimuth Distance (km) Brightness Sun altitude
Rises 17:27:50 0° 292° (WNW) 4,641 10.9 32.6°
Reaches altitude 10° 17:30:56 10° 287° (WNW) 3,664 10.7 32.0°
Maximum altitude 17:39:44 53° 215° (SW) 1,831 8.8 30.5°
Drops below altitude 10° 17:48:47 10° 142° (SE) 3,754 9.3 28.9°
Sets 17:51:59 0° 138° (SE) 4,762 9.7 28.4°
